Home   Weather   Mannheim   Past weeks

Flag for Germany Past Weather in Mannheim, Baden-Württemberg, Germany — Yesterday and Last 2 Weeks

Now
59 °F

Passing clouds.


Feels Like: 59 °F
Forecast: 38 / 66 °F
Wind: 5 mph from East

Location: Mannheim City

Current Time: Apr 29, 2017 at 9:47:18 pm

Latest Report: Apr 29, 2017 at 7:20 pm


Visibility: N/A

Pressure: 30.01 "Hg

Humidity: 34%

Dew Point: 30 °F

Location of MannheimLocation

Past Weather in Mannheim — Graph

°F

Mannheim Temperature Yesterday

Maximum temperature yesterday: 57 °F (at 1:20 pm)
Minimum temperature yesterday: 39 °F (at 6:20 am)
Average temperature yesterday: 50 °F

High & Low Weather Summary for the Past Weeks

 TemperatureHumidityPressure
High63 °F (Apr 24, 6:50 pm)100% (Apr 24, 5:20 am)30.60 "Hg (Apr 24, 5:20 am)
Low28 °F (Apr 20, 5:50 am)28% (Apr 21, 12:50 pm)29.71 "Hg (Apr 25, 5:50 am)
Average49 °F50%30.13 "Hg
* Reported Apr 19 9:20 am — Apr 29 7:20 pm, Mannheim, Weather by CustomWeather, © 2017

Note: Actual official high and low records may vary slightly from our data, if they occured in-between our weather recording intervals... More about our weather records

Advertising

Mannheim Weather History for the Previous 24 Hours

Scroll right to see more
 ConditionsComfort  
Time TempWeatherWind HumidityBarometerVisibility
7:20 pm
Sat, Apr 29
59 °FPassing clouds.5 mph34%30.01 "HgN/A
6:50 pm59 °FSunny.2 mph34%30.01 "Hg10 mi
6:20 pm59 °FSunny.3 mph34%30.01 "Hg10 mi
5:50 pm59 °FSunny.6 mph34%30.01 "Hg10 mi
5:20 pm59 °FSunny.5 mph34%30.01 "Hg10 mi
4:50 pm59 °FPassing clouds.5 mph36%30.01 "HgN/A
4:20 pm59 °FSunny.3 mph34%30.04 "Hg10 mi
3:50 pm61 °FSunny.5 mph34%30.04 "Hg10 mi
3:20 pm59 °FScattered clouds.6 mph36%30.04 "HgN/A
2:20 pm55 °FPartly sunny.6 mph41%30.04 "HgN/A
1:50 pm57 °FScattered clouds.5 mph39%30.04 "HgN/A
12:50 pm54 °FPartly sunny.5 mph51%30.07 "HgN/A
12:20 pm55 °FPartly sunny.8 mph47%30.07 "HgN/A
11:50 am55 °FPassing clouds.5 mph47%30.07 "HgN/A
11:20 am52 °FPassing clouds.3 mph58%30.07 "HgN/A
10:50 am52 °FPartly sunny.5 mph58%30.07 "HgN/A
9:20 am50 °FBroken clouds.3 mph67%30.07 "HgN/A
8:50 am50 °FPartly sunny.1 mph67%30.07 "HgN/A
8:20 am46 °FPartly sunny.2 mph76%30.07 "HgN/A
7:50 am46 °FSunny.3 mph76%30.07 "Hg10 mi
9:20 pm
Fri, Apr 28
52 °FClear.8 mph50%30.01 "Hg10 mi
Weather by CustomWeather, © 2017

See weather overviewHow to use our weather pages